[[{"header":{"parameterUnit":"m.s-1","parameterCategory":1,"la1":30.2991,"la2":30.254,"lo1":-89.0895,"lo2":-89.0444,"dy":0.0017,"dx":0.0017,"nx":28,"ny":28,"refTime":"2025-03-12T09:00:00:Z","depth":0,"parameterNumber":2,"parameterNumberName":"U-component_of_WINDS"},"data":[0,0,0,0,0,0,0,0,0,0,0,0,0,0,0,0,0,0,0,0,0,0,0,0,0,0,0,0,0,0,0,0,0,0,0,0,0,0,0,0,0,0,0,0,0,0,0,0,0,0,0,0,0,0,0,0,0,0,0.1787,0.1788,0,0.1863,0.1864,0.1865,0.1846,0.1845,0.1843,0.1842,0.1921,0.1924,0.1928,0,0,0,0,0,0,0,0,0,0,0,0,0,0.1624,0.1627,0.1787,0.1788,0.1789,0.1863,0.1864,0.1865,0.1846,0.1844,0.1843,0.1841,0.192,0.1924,0.1928,0,0,0,0,0,0,0,0,0,0,0,0,0,0.1697,0.1628,0.1787,0.1788,0.1789,0.1863,0.1864,0.1866,0.1847,0.1844,0.1842,0.184,0.1918,0.1923,0.1929,0.2006,0,0,0.1945,0.1947,0,0,0,0,0,0,0,0,0.1693,0.1703,0.1787,0.1788,0.1789,0.1843,0.1836,0.1913,0.1847,0.1825,0.1842,0.1839,0.1897,0.1904,0.1923,0.201,0.2013,0.1945,0.1948,0.195,0.1952,0,0,0,0,0,0,0,0.1688,0.17,0.1817,0.1788,0.179,0.1785,0.1793,0.185,0.1872,0.1827,0.1825,0.1835,0.1897,0.1918,0.1925,0.2014,0.1945,0.195,0.1953,0.1955,0.2167,0.217,0,0,0,0,0,0,0.1682,0.1696,0.1815,0.1819,0.1735,0.179,0.1799,0.1828,0.1872,0.1876,0.1837,0.1834,0.191,0.1918,0.1927,0.2021,0.195,0.1955,0.1958,0.2165,0.2168,0.2171,0,0,0,0,0,0,0.1678,0.1693,0.1812,0.1757,0.1772,0.1795,0.1828,0.1831,0.1852,0.1879,0.1883,0.1854,0.1909,0.192,0.1986,0.2023,0.1958,0.1963,0.2162,0.2166,0.2169,0.2209,0,0,0,0,0,0,0.1674,0.1692,0.1721,0.1758,0.1775,0.187,0.183,0.1834,0.1861,0.1857,0.1897,0.1901,0.1908,0.1979,0.1992,0.2029,0.1967,0.2159,0.2164,0.2168,0.2204,0.2213,0.2221,0,0,0,0,0,0.1668,0.173,0.1723,0.1738,0.1813,0.1872,0.1881,0.1888,0.1864,0.1894,0.1911,0.19,0.2017,0.1986,0.2,0.204,0.2156,0.2162,0.2168,0.22,0.2212,0.2221,0,0,0,0,0,0,0.1697,0.1735,0.1728,0.1803,0.1834,0.1868,0.1907,0.1899,0.1939,0.1934,0.194,0.1949,0.2017,0.2035,0.1999,0.2117,0.2083,0.2092,0.2103,0.2114,0.2122,0.2117,0.1971,0,0,0,0,0,0.1712,0.1757,0.1787,0.1851,0.1867,0.1884,0.191,0.1912,0.1945,0.1958,0.1981,0.2013,0.2057,0.2086,0.2128,0.2206,0.2214,0.224,0.2249,0.2256,0.2264,0.2306,0.2318,0.2189,0.2189,0.2189,0,0,0.1744,0.177,0.1798,0.1857,0.1882,0.1928,0.1895,0.1946,0.1981,0.1966,0.203,0.2047,0.2084,0.2156,0.2189,0.2173,0.2301,0.2263,0.2268,0.2272,0.2313,0.2325,0.2336,0.2193,0.2192,0.2192,0,0,0.1827,0.185,0.1906,0.1931,0.1968,0.1979,0.1992,0.2028,0.2039,0.2103,0.2093,0.2133,0.2209,0.2236,0.2259,0.2349,0.234,0.2363,0.2408,0.2449,0.2459,0.2468,0.2501,0.2513,0.237,0.237,0.237,0,0.1862,0.1931,0.1935,0.1987,0.2013,0.2001,0.2057,0.2081,0.2131,0.2149,0.213,0.2224,0.2248,0.2326,0.2348,0.2367,0.2383,0.2359,0.2457,0.2466,0.2475,0.2506,0.2518,0.2373,0.2372,0.2372,0.2372,0,0.1973,0.2021,0.2062,0.2109,0.214,0.2193,0.2205,0.2236,0.2234,0.2247,0.2312,0.234,0.2387,0.2405,0.2405,0.2484,0.2473,0.2455,0.2422,0.249,0.2519,0.2531,0.2376,0.2376,0.2375,0.2374,0,0,0.2078,0.2126,0.2141,0.2162,0.2202,0.2239,0.2292,0.2338,0.2364,0.2397,0.2442,0.2505,0.2489,0.2516,0.2518,0.2554,0.2624,0.2532,0.2533,0.2549,0.2713,0.2727,0.2741,0.2617,0.2619,0.2621,0.271,0,0.2164,0.2257,0.2262,0.2347,0.2391,0.238,0.2425,0.2454,0.2467,0.2507,0.252,0.2566,0.2541,0.2557,0.2591,0.2608,0.2657,0.2601,0.2659,0.2661,0.2652,0.2756,0.2771,0.2854,0.2722,0.2724,0.2725,0,0.2278,0.2315,0.2405,0.2437,0.2456,0.2497,0.254,0.2577,0.261,0.2616,0.2645,0.2642,0.2695,0.2658,0.2732,0.2694,0.2718,0.2729,0.2732,0.2739,0.2699,0.2767,0.2881,0.2893,0.2743,0.2742,0.274,0,0.2347,0.2419,0.2482,0.25,0.254,0.2569,0.2587,0.2617,0.2644,0.268,0.2698,0.274,0.2764,0.2796,0.2804,0.2776,0.2878,0.2842,0.2885,0.2885,0.2909,0.2908,0.3029,0.2922,0.2921,0.2921,0.2921,0,0.2444,0.2499,0.2513,0.2552,0.2613,0.2617,0.2678,0.2693,0.272,0.2761,0.2753,0.2792,0.2799,0.2839,0.2845,0.2906,0.2916,0.2923,0.2925,0.2925,0.2924,0.2942,0.2937,0.2924,0.2924,0.2923,0.2922,0,0.2532,0.2543,0.2611,0.2642,0.2652,0.2696,0.2722,0.2759,0.277,0.2823,0.2835,0.2853,0.29,0.291,0.2966,0.2969,0.3042,0.3036,0.3031,0.3031,0.3075,0.3071,0.3213,0.3232,0.3111,0.3112,0.3113,0,0.2594,0.2636,0.2672,0.2699,0.2718,0.2762,0.2789,0.2794,0.2823,0.2863,0.2895,0.2941,0.2978,0.3053,0.3071,0.3113,0.311,0.3156,0.3116,0.3115,0.3112,0.311,0.3114,0.3165,0.3166,0.3167,0.3168,0,0.2703,0.2706,0.2746,0.2788,0.2821,0.2854,0.2886,0.2908,0.2918,0.295,0.2998,0.3027,0.3083,0.3129,0.3171,0.3189,0.3181,0.318,0.3193,0.3195,0.319,0.3194,0.3053,0.3178,0.3177,0.3176,0.3175,0.3175,0.278,0.2817,0.2848,0.2893,0.2917,0.2947,0.2983,0.2998,0.3038,0.3085,0.3085,0.3137,0.3168,0.3223,0.3243,0.3284,0.327,0.3288,0.3293,0.3297,0.3302,0.3182,0.3292,0.3291,0.3291,0.3291,0.3291,0,0.289,0.2909,0.295,0.2994,0.3029,0.3017,0.3051,0.3081,0.3128,0.3157,0.3193,0.3248,0.3292,0.3312,0.3355,0.3384,0.3381,0.3395,0.3394,0.3398,0.3312,0.3297,0.3397,0.3397,0.3397,0.3397,0.3397,0.3397,0.2951,0.3013,0.302,0.3094,0.3112,0.3164,0.3184,0.3211,0.3234,0.3296,0.3332,0.3345,0.337,0.3415,0.3455,0.346,0.3476,0.3493,0.3496,0.3415,0.3404,0.3394,0.3381,0.3496,0.3496,0.3579,0.358,0.358]},{"header":{"parameterUnit":"m.s-1","parameterCategory":1,"la1":30.2991,"la2":30.254,"lo1":-89.0895,"lo2":-89.0444,"dy":0.0017,"dx":0.0017,"nx":28,"ny":28,"refTime":"2025-03-12T09:00:00:Z","depth":0,"parameterNumber":3,"parameterNumberName":"V-component_of_WINDS"},"data":[0,0,0,0,0,0,0,0,0,0,0,0,0,0,0,0,0,0,0,0,0,0,0,0,0,0,0,0,0,0,0,0,0,0,0,0,0,0,0,0,0,0,0,0,0,0,0,0,0,0,0,0,0,0,0,0,0,0,3.9462,3.9464,0,3.9675,3.9677,3.968,3.9692,3.969,3.9687,3.9685,3.9899,3.9907,3.9915,0,0,0,0,0,0,0,0,0,0,0,0,0,3.9061,3.9068,3.9462,3.9465,3.9467,3.9675,3.9678,3.968,3.9693,3.969,3.9687,3.9684,3.9897,3.9906,3.9916,0,0,0,0,0,0,0,0,0,0,0,0,0,3.925,3.907,3.9461,3.9498,3.9504,3.9674,3.9678,3.9681,3.9693,3.969,3.9686,3.9683,3.9893,3.9905,3.9917,4.0063,0,0,3.9953,3.9958,0,0,0,0,0,0,0,0,3.9239,3.9265,3.949,3.9496,3.9503,3.9653,3.9615,3.9809,3.9694,3.9621,3.9685,3.9681,3.982,3.9838,3.9886,4.0073,4.0082,3.9954,3.9962,3.9967,3.997,0,0,0,0,0,0,0,3.9226,3.9256,3.9546,3.9494,3.9501,3.9503,3.9526,3.9651,3.9738,3.9627,3.9629,3.9654,3.9823,3.9874,3.9891,4.0086,3.9954,3.9965,3.9972,3.9977,4.0403,4.0406,0,0,0,0,0,0,3.9207,3.9245,3.9539,3.9553,3.936,3.9513,3.9539,3.9609,3.9737,3.9753,3.9657,3.9654,3.9855,3.9877,3.9898,4.0078,3.9967,3.9978,3.9985,4.0398,4.0403,4.0408,0,0,0,0,0,0,3.9198,3.9233,3.9531,3.9399,3.9437,3.9524,3.9602,3.9615,3.9666,3.976,3.9774,3.9694,3.9853,3.9882,4.0022,4.0086,3.9983,3.9994,4.0394,4.04,4.0406,4.0439,0,0,0,0,0,0,3.9186,3.923,3.9288,3.94,3.9444,3.9653,3.9606,3.9622,3.9687,3.9685,3.9798,3.9813,3.9853,4.0004,4.0034,4.01,4.0003,4.0388,4.0396,4.0404,4.0433,4.0446,4.0457,0,0,0,0,0,3.9172,3.9288,3.9291,3.9326,3.9519,3.9657,3.9682,3.9726,3.9692,3.9751,3.981,3.981,4.0073,4.0019,4.0052,4.0123,4.0384,4.0394,4.0403,4.0427,4.0443,4.0457,0,0,0,0,0,0,3.918,3.9304,3.9308,3.9464,3.955,3.9659,3.9734,3.9741,3.9837,3.9831,3.9881,3.9906,4.0045,4.0098,4.0034,4.0271,4.0225,4.0241,4.0232,4.0248,4.026,4.0245,4.0013,0,0,0,0,0,3.9199,3.9303,3.9405,3.9532,3.9575,3.9647,3.9709,3.9735,3.9825,3.9861,3.9931,4.0018,4.012,4.0186,4.0286,4.0439,4.0464,4.0504,4.0516,4.0526,4.054,4.0625,4.0644,4.0439,4.0439,4.0438,0,0,3.9242,3.9322,3.9384,3.9536,3.9606,3.971,3.9677,3.9789,3.9867,3.9878,4.0016,4.007,4.0169,4.0317,4.0385,4.0365,4.0602,4.0538,4.0545,4.0554,4.0636,4.0655,4.0673,4.0445,4.0444,4.0443,0,0,3.9372,3.9443,3.9558,3.9628,3.9734,3.9781,3.9808,3.9915,3.9952,4.0091,4.0102,4.0193,4.0368,4.0439,4.0497,4.0652,4.0655,4.0682,4.0746,4.0827,4.0844,4.0858,4.0914,4.0933,4.0695,4.0696,4.0696,0,3.9411,3.957,3.9615,3.9728,3.9793,3.9809,3.9924,3.9989,4.0122,4.0166,4.0141,4.0361,4.0429,4.0593,4.0631,4.0677,4.0709,4.0671,4.0838,4.0853,4.0867,4.092,4.0941,4.0698,4.0698,4.0698,4.0697,0,3.9613,3.9723,3.9802,3.9931,4.0005,4.0118,4.0178,4.0248,4.0267,4.0315,4.0455,4.0537,4.0653,4.0693,4.0713,4.086,4.0844,4.0828,4.0783,4.0889,4.094,4.096,4.0702,4.0701,4.07,4.07,0,0,3.9757,3.9908,3.9936,3.9995,4.0112,4.0197,4.0309,4.0423,4.0482,4.0571,4.0666,4.0813,4.0799,4.0865,4.0892,4.0963,4.108,4.0939,4.0942,4.0963,4.1247,4.126,4.1283,4.1082,4.1086,4.1089,4.1239,0,3.9901,4.0104,4.0147,4.0321,4.0423,4.0437,4.0535,4.0616,4.0663,4.0755,4.0806,4.091,4.0883,4.0923,4.0994,4.1051,4.1138,4.1041,4.117,4.1174,4.1147,4.1309,4.1324,4.1461,4.1259,4.1262,4.1265,0,4.0098,4.0193,4.0379,4.0481,4.0525,4.0613,4.072,4.0808,4.0899,4.0928,4.1001,4.102,4.1135,4.1083,4.1242,4.1174,4.1229,4.1265,4.1271,4.1286,4.1227,4.133,4.1506,4.1527,4.1297,4.1294,4.1292,0,4.0185,4.036,4.0493,4.0542,4.0665,4.0726,4.078,4.0867,4.0933,4.1026,4.1068,4.1173,4.123,4.1309,4.1355,4.1313,4.151,4.1462,4.1537,4.1536,4.1579,4.1576,4.1768,4.1612,4.1612,4.1611,4.1611,0,4.0343,4.0456,4.0534,4.0617,4.0743,4.0789,4.0911,4.0964,4.1042,4.1133,4.115,4.1235,4.1289,4.1381,4.1416,4.1542,4.1567,4.1593,4.1602,4.1593,4.159,4.1631,4.1623,4.1617,4.1615,4.1614,4.1613,0,4.0463,4.052,4.0667,4.0771,4.0799,4.0888,4.0976,4.1055,4.1101,4.1216,4.1246,4.1318,4.1427,4.1479,4.1614,4.1638,4.178,4.1782,4.1751,4.1754,4.1826,4.1819,4.2053,4.2086,4.1906,4.1908,4.1909,0,4.0561,4.0649,4.0762,4.0825,4.0881,4.0982,4.1049,4.1096,4.1165,4.1274,4.134,4.1449,4.154,4.1713,4.1776,4.1878,4.1883,4.1958,4.1899,4.1887,4.1885,4.188,4.1889,4.1969,4.1971,4.1972,4.1973,0,4.073,4.0753,4.085,4.0957,4.1037,4.1123,4.1207,4.1257,4.1317,4.1393,4.1505,4.1575,4.1712,4.1821,4.1927,4.198,4.1987,4.1991,4.2014,4.2007,4.1986,4.1999,4.1781,4.1986,4.1985,4.1984,4.1983,4.1983,4.0843,4.0921,4.1013,4.112,4.1188,4.1266,4.1346,4.1402,4.1497,4.1614,4.1634,4.1753,4.184,4.1984,4.204,4.2132,4.2115,4.2148,4.2157,4.2165,4.2169,4.1969,4.2151,4.2151,4.2151,4.215,4.215,0,4.1013,4.1072,4.117,4.1288,4.1372,4.1371,4.1463,4.1533,4.1638,4.1719,4.1807,4.1935,4.204,4.211,4.2216,4.2276,4.2281,4.2302,4.2299,4.2311,4.2178,4.2148,4.2296,4.2296,4.2296,4.2296,4.2295,4.2295,4.1112,4.1244,4.1278,4.1443,4.1501,4.1619,4.1672,4.1743,4.1808,4.1951,4.2038,4.2084,4.216,4.2271,4.2366,4.2383,4.2422,4.2443,4.246,4.2335,4.232,4.2306,4.2278,4.2451,4.2451,4.2586,4.2587,4.2588]}]]